Stations météo

réclame
Mon MeteoGroup
Shoreham Airport, Grande-Bretagne (3876): Température de l'air & dewpoint: 26.11.2020 12:00:00 - 02.12.2020 12:00:00 (GMT)Shoreham Airport, Grande-Bretagne (3876): Vitesse du vent & gusts: 26.11.2020 12:00:00 - 02.12.2020 12:00:00 (GMT)Shoreham Airport, Grande-Bretagne (3876): Direction du vent: 26.11.2020 12:00:00 - 02.12.2020 12:00:00 (GMT)Shoreham Airport, Grande-Bretagne (3876): reduced air pressure: 26.11.2020 12:00:00 - 02.12.2020 12:00:00 (GMT)Shoreham Airport, Grande-Bretagne (3876): visibility: 26.11.2020 12:00:00 - 02.12.2020 12:00:00 (GMT)Shoreham Airport, Grande-Bretagne (3876): Quantités de précipitations: 26.11.2020 12:00:00 - 02.12.2020 12:00:00 (GMT)
Date & Time tt [°C] td [°C] ff [km/h] ff [knt] fx [km/h] fx [knt] dd ppp [hPa] vv [km] rr [mm]
02.12.2020 12:00:00 6,6 4,1 5 3 - - W 1018,7 10 0,0
02.12.2020 11:00:00 5,4 3,6 4 2 - - NW 1019,4 10 0,0
02.12.2020 10:00:00 4,3 2,4 5 3 - - N 1020,3 10 0,0
02.12.2020 09:00:00 4,4 2,8 8 4 - - NNW 1020,5 10 0,0
02.12.2020 08:00:00 2,8 1,8 11 6 - - N 1021,3 10 0,0
02.12.2020 07:00:00 2,1 0,8 13 7 - - N 1021,4 - 0,0
02.12.2020 06:00:00 2,8 1,6 8 4 - - N 1021,8 - 0,0
02.12.2020 05:00:00 2,4 1,4 9 5 - - N 1022,4 - 0,0
02.12.2020 04:00:00 2,1 1,2 11 6 - - N 1023,4 - 0,0
02.12.2020 03:00:00 2,1 0,8 8 4 - - N 1023,8 - 0,0
02.12.2020 02:00:00 2,7 1,1 4 2 - - N 1024,5 - 0,0
02.12.2020 01:00:00 3,5 1,9 9 5 - - NNW 1024,8 - 0,0
02.12.2020 00:00:00 3,4 1,9 8 4 - - NNW 1025,0 - 0,0
01.12.2020 23:00:00 3,3 1,9 4 2 - - WSW 1025,4 - 0,0
01.12.2020 22:00:00 3,6 2,3 9 5 - - N 1025,6 - 0,0
01.12.2020 21:00:00 3,3 1,7 9 5 - - N 1025,8 - 0,0
01.12.2020 20:00:00 4,7 2,3 13 7 - - NNW 1025,6 - 0,0
01.12.2020 19:00:00 5,8 2,7 11 6 - - W 1025,8 10 0,0
01.12.2020 18:00:00 5,0 2,5 4 2 - - - 1025,5 10 0,0
01.12.2020 17:00:00 4,8 2,0 5 3 - - NNW 1025,2 10 0,0
01.12.2020 16:00:00 6,4 2,9 18 10 - - N 1025,2 10 0,0
01.12.2020 15:00:00 7,4 3,4 22 12 - - N 1025,0 10 0,0
01.12.2020 14:00:00 8,0 3,4 22 12 - - NNW 1025,2 10 0,0
01.12.2020 13:00:00 8,2 3,7 22 12 - - NNW 1025,5 10 0,0
01.12.2020 12:00:00 7,6 3,6 18 10 - - NNW 1025,9 10 0,0
01.12.2020 11:00:00 6,7 3,0 21 11 - - NNW 1025,9 10 0,0
01.12.2020 10:00:00 5,4 2,3 18 10 - - NNW 1026,0 10 0,0
01.12.2020 09:00:00 4,1 1,7 16 9 - - NNW 1025,8 10 0,0
01.12.2020 08:00:00 3,6 1,4 16 9 - - NNW 1025,5 10 0,0
01.12.2020 07:00:00 3,7 1,3 16 9 - - NNW 1024,9 - 0,0
01.12.2020 06:00:00 4,1 1,5 13 7 - - NNW 1024,6 - 0,0
01.12.2020 05:00:00 4,0 1,3 13 7 - - NNW 1024,0 - 0,0
01.12.2020 04:00:00 4,7 1,8 15 8 - - NNW 1023,9 - 0,0
01.12.2020 03:00:00 4,6 1,5 15 8 - - NNW 1023,8 - 0,0
01.12.2020 02:00:00 5,2 1,9 13 7 - - NNW 1023,5 - 0,0
01.12.2020 01:00:00 6,2 2,4 16 9 - - NW 1023,2 - 0,0
01.12.2020 00:00:00 7,0 2,7 16 9 - - NW 1022,7 - 0,0
30.11.2020 23:00:00 8,4 3,2 29 16 48 26 NNW 1022,1 - 0,0
30.11.2020 22:00:00 10,6 8,1 24 13 - - WNW 1021,1 - 0,0
30.11.2020 21:00:00 8,9 8,1 15 8 - - WSW 1020,8 - 0,0
30.11.2020 20:00:00 8,6 7,9 15 8 - - WSW 1020,9 - 0,0
30.11.2020 19:00:00 9,0 8,0 18 10 - - WSW 1021,2 - 0,0
30.11.2020 18:00:00 9,2 8,3 16 9 - - WSW 1021,6 9 0,0
30.11.2020 17:00:00 8,9 8,1 16 9 - - WSW 1021,7 5 0,2
30.11.2020 16:00:00 8,8 7,6 24 13 - - WSW 1022,3 6 0,0
30.11.2020 15:00:00 8,0 7,2 9 5 - - WNW 1023,1 4,0 0,0
30.11.2020 14:00:00 7,2 6,4 13 7 - - WSW 1023,7 4,2 0,0
30.11.2020 13:00:00 6,8 6,0 11 6 - - W 1024,7 5 0,0
30.11.2020 12:00:00 6,6 5,9 9 5 - - W 1025,2 5 0,0
30.11.2020 11:00:00 6,1 6,1 16 9 - - W 1026,1 3,5 0,0
30.11.2020 10:00:00 5,9 5,9 13 7 - - WSW 1026,6 0,3 0,0
30.11.2020 09:00:00 4,5 4,5 9 5 - - W 1027,0 0,2 0,0
30.11.2020 08:00:00 4,8 4,8 11 6 - - WSW 1027,1 0,8 0,0
30.11.2020 07:00:00 5,2 5,2 5 3 - - WSW 1026,9 - 0,0
30.11.2020 06:00:00 5,3 5,3 5 3 - - W 1027,1 - 0,0
30.11.2020 05:00:00 5,2 5,1 4 2 - - W 1027,2 - 0,0
30.11.2020 04:00:00 5,4 5,2 5 3 - - NW 1027,3 - 0,0
30.11.2020 03:00:00 5,4 5,0 8 4 - - NNW 1027,3 - 0,0
30.11.2020 02:00:00 5,8 5,3 5 3 - - WNW 1027,5 - 0,0
30.11.2020 01:00:00 6,1 5,5 5 3 - - W 1027,5 - 0,0
30.11.2020 00:00:00 6,1 5,5 5 3 - - NW 1027,7 - 0,0
29.11.2020 23:00:00 6,4 5,6 4 2 - - WSW 1027,4 - 0,0
29.11.2020 22:00:00 6,5 5,6 4 2 - - NW 1027,5 - 0,0
29.11.2020 21:00:00 6,8 5,8 4 2 - - ESE 1027,1 - 0,0
29.11.2020 20:00:00 7,1 6,0 5 3 - - N 1027,4 - 0,0
29.11.2020 19:00:00 7,2 6,1 5 3 - - NE 1027,1 - 0,0
29.11.2020 18:00:00 7,2 6,2 9 5 - - NNE 1027,0 7 0,0
29.11.2020 17:00:00 7,7 6,4 9 5 - - NNE 1026,9 8 0,0
29.11.2020 16:00:00 8,0 6,7 8 4 - - N 1026,5 5 0,0
29.11.2020 15:00:00 8,4 6,8 9 5 - - N 1026,2 7 0,0
29.11.2020 14:00:00 8,5 6,7 13 7 - - N 1025,9 7 0,0
29.11.2020 13:00:00 8,8 7,0 11 6 - - NE 1025,9 7 0,0
29.11.2020 12:00:00 9,0 7,5 13 7 - - NNE 1025,8 5 0,0
29.11.2020 11:00:00 8,9 7,6 13 7 - - N 1025,9 7 0,0
29.11.2020 10:00:00 8,6 7,6 8 4 - - NNE 1025,5 - 0,0
29.11.2020 09:00:00 8,1 7,3 18 10 - - NNE 1025,0 - 0,0
29.11.2020 08:00:00 7,6 7,2 16 9 - - N 1024,3 - 0,0
29.11.2020 07:00:00 7,3 7,0 28 15 - - N 1023,8 - 0,0
29.11.2020 06:00:00 7,1 7,1 24 13 - - N 1023,5 - 0,0
29.11.2020 05:00:00 7,0 7,0 24 13 - - N 1023,0 - 0,2
29.11.2020 04:00:00 6,4 6,4 28 15 - - N 1022,9 - 0,0
29.11.2020 03:00:00 6,0 6,0 26 14 - - N 1022,6 - 0,0
29.11.2020 02:00:00 6,7 6,7 21 11 - - N 1022,6 - 0,0
29.11.2020 01:00:00 6,1 6,1 22 12 - - N 1022,2 - 0,0
29.11.2020 00:00:00 7,0 6,6 21 11 - - N 1022,0 - 0,0
28.11.2020 23:00:00 6,7 6,4 16 9 - - N 1021,9 - 0,0
28.11.2020 22:00:00 7,2 6,6 15 8 - - N 1021,5 - 0,0
28.11.2020 21:00:00 8,0 7,2 9 5 - - N 1021,1 - 0,0
28.11.2020 20:00:00 8,9 7,8 11 6 - - N 1020,5 - 0,0
28.11.2020 19:00:00 8,6 7,3 15 8 - - N 1019,9 - 0,0
28.11.2020 18:00:00 9,8 8,0 15 8 - - NNE 1019,3 10 0,0
28.11.2020 17:00:00 9,7 7,8 11 6 - - NNE 1019,0 10 0,0
28.11.2020 16:00:00 10,3 7,9 8 4 - - NNE 1018,6 10 0,0
28.11.2020 15:00:00 12,6 9,2 9 5 - - ESE 1018,0 10 0,0
28.11.2020 14:00:00 13,6 9,2 13 7 - - E 1017,5 10 0,0
28.11.2020 13:00:00 13,5 9,7 11 6 - - E 1017,5 10 0,0
28.11.2020 12:00:00 12,6 9,6 15 8 - - E 1017,3 9 0,0
28.11.2020 11:00:00 12,1 9,8 13 7 - - ENE 1017,3 9 0,0
28.11.2020 10:00:00 10,8 9,6 9 5 - - NE 1017,0 6 0,0
28.11.2020 09:00:00 9,4 8,8 8 4 - - ENE 1016,6 4,0 0,0
28.11.2020 08:00:00 9,2 8,5 9 5 - - E 1016,2 - 0,0
28.11.2020 07:00:00 9,9 9,1 9 5 - - E 1015,9 - 0,0
28.11.2020 06:00:00 9,7 8,8 13 7 - - E 1015,4 - 0,0
28.11.2020 05:00:00 9,7 8,7 9 5 - - E 1015,3 - 0,0
28.11.2020 04:00:00 9,4 8,4 11 6 - - E 1015,1 - 0,0
28.11.2020 03:00:00 9,3 8,2 11 6 - - E 1015,2 - 0,0
28.11.2020 02:00:00 9,3 8,0 15 8 - - E 1015,3 - 0,0
28.11.2020 01:00:00 9,4 8,1 15 8 - - E 1015,0 - 0,0
28.11.2020 00:00:00 9,4 8,3 9 5 - - ENE 1015,5 - 0,0
27.11.2020 23:00:00 9,2 8,3 11 6 - - ENE 1015,3 - 0,0
27.11.2020 22:00:00 9,0 8,1 13 7 - - ENE 1015,4 - 0,0
27.11.2020 21:00:00 8,6 7,7 9 5 - - NE 1015,8 - 0,8
27.11.2020 20:00:00 8,6 7,1 13 7 - - NE 1015,8 - 0,0
27.11.2020 19:00:00 8,3 6,7 11 6 - - NNE 1016,1 - 0,0
27.11.2020 18:00:00 8,5 6,5 15 8 - - NE 1016,1 10 0,0
27.11.2020 17:00:00 8,8 6,5 13 7 - - NE 1016,1 10 0,0
27.11.2020 16:00:00 8,9 6,7 11 6 - - NNE 1016,3 10 0,0
27.11.2020 15:00:00 9,3 7,1 13 7 - - NE 1016,4 10 0,0
27.11.2020 14:00:00 9,7 6,8 13 7 - - ENE 1016,8 10 0,0
27.11.2020 13:00:00 8,9 6,7 13 7 - - NE 1017,5 10 0,0
27.11.2020 12:00:00 8,1 6,0 11 6 - - NE 1018,0 10 0,0
27.11.2020 11:00:00 6,1 4,6 13 7 - - N 1018,9 10 0,0
27.11.2020 10:00:00 5,7 4,4 13 7 - - NNW 1019,5 10 0,0
27.11.2020 09:00:00 6,0 4,1 18 10 - - NNE 1019,5 10 0,0
27.11.2020 08:00:00 5,6 4,7 15 8 - - N 1019,6 10 0,0
27.11.2020 07:00:00 5,7 5,0 18 10 - - N 1019,3 - 0,2
27.11.2020 06:00:00 5,7 5,2 13 7 - - N 1019,5 - 0,4
27.11.2020 05:00:00 6,1 5,4 16 9 - - N 1019,8 - 0,4
27.11.2020 04:00:00 6,3 5,7 11 6 - - N 1019,9 - 0,0
27.11.2020 03:00:00 6,4 5,4 13 7 - - N 1020,3 - 0,0
27.11.2020 02:00:00 6,9 5,5 13 7 - - N 1020,3 - 0,0
27.11.2020 01:00:00 7,0 5,9 13 7 - - N 1020,3 - 0,0
27.11.2020 00:00:00 7,1 6,2 13 7 - - N 1020,5 - 0,0
26.11.2020 23:00:00 7,1 6,6 13 7 - - N 1020,8 - 0,0
26.11.2020 22:00:00 7,1 6,5 13 7 - - N 1021,0 - 0,0
26.11.2020 21:00:00 6,9 6,5 13 7 - - N 1021,0 - 0,0
26.11.2020 20:00:00 6,8 6,4 13 7 - - N 1021,1 - 0,2
26.11.2020 19:00:00 6,8 6,3 13 7 - - N 1021,2 - 0,0
26.11.2020 18:00:00 7,3 5,9 13 7 - - N 1021,0 10 0,0
26.11.2020 17:00:00 7,5 5,7 9 5 - - N 1020,4 8 0,0
26.11.2020 16:00:00 7,4 5,8 13 7 - - N 1020,3 8 0,0
26.11.2020 15:00:00 7,3 6,4 18 10 - - N 1020,3 8 0,0
26.11.2020 14:00:00 7,5 6,6 16 9 - - N 1020,4 10 0,0
26.11.2020 13:00:00 7,3 6,6 16 9 - - N 1020,5 10 0,0
26.11.2020 12:00:00 7,0 6,7 16 9 - - N 1020,9 9 0,0

tt = Température de l'air
td = dewpoint
ff = Vitesse du vent
fx = gusts
dd = Direction du vent
ppp = reduced air pressure
vv = visibility
rr = Quantités de précipitations

stations d'obs. à proximité